Location: Limerick
(52.6800°N, 8.6400°W)
Time: 13:01:32
(UTC+00:00)

Daily predictions for brighter satellites

Satellite Brightness Start Highest point End
(mag) Time Altitude Azimuth Time Altitude Azimuth Time Altitude Azimuth
Cosmos 2237 Rocket 3.1 18:29:02 10° NW 18:34:33 56° WSW 18:40:01 10° S
Cosmos 44 3.6 18:29:49 10° NW 18:34:45 76° SW 18:39:56 10° SE
FREGAT/IRIS 3.7 18:33:20 10° SE 18:35:49 24° ENE 18:38:19 10° N
ALOS 2.3 18:32:22 10° SSE 18:37:03 89° WSW 18:41:46 10° NNW
FENGYUN 3A 3.7 18:32:03 10° SSE 18:37:29 89° ENE 18:42:57 10° NNW
SL-16 R/B 2.2 18:33:27 10° NNW 18:39:11 80° ENE 18:44:51 10° SE
Cosmos 2227 Rocket 2.4 18:33:51 10° S 18:39:18 52° ESE 18:44:47 10° NE
Cosmos 1869 Rocket 4.3 18:35:22 10° SSW 18:39:38 58° WNW 18:43:58 10° N
Resurs 01 Rocket 3.2 18:37:18 10° E 18:40:05 17° NE 18:42:53 10° NNE
Cosmos 2219 3.4 18:34:44 10° SW 18:40:22 76° WNW 18:46:04 10° NNE
MOS 1-B Rocket 4.0 18:35:07 10° SSE 18:41:16 89° WSW 18:46:56 10° NNW
CZ-2C R/B 3.6 18:37:11 10° NNE 18:41:41 73° ESE 18:46:06 10° S
Cosmos 1464 Rocket 4.1 18:37:52 10° N 18:43:52 52° ENE 18:49:50 10° SSE
MTI 4.1 18:43:48 10° NNE 18:46:52 42° E 18:49:55 10° S
MOS 1 4.5 18:44:01 10° SSE 18:49:41 83° WSW 18:55:26 10° NNW
Cosmos 1378 Rocket 3.8 18:45:47 10° N 18:50:05 49° ENE 18:54:23 10° SSE
Cosmos 2297 Rocket 2.3 18:47:33 10° S 18:53:04 57° ESE 18:58:38 10° NE
ATLAS 3B R/B 2.9 18:46:48 10° SW 18:53:59 82° NW 19:00:54 10° NE
Cosmos 1072 Rocket 4.5 18:49:26 10° N 18:55:38 67° ENE 19:01:52 10° SSE
Cosmos 1603 4.0 18:52:09 10° NNW 18:57:38 47° NE 19:03:03 10° ESE
HJ-1C 4.0 18:54:51 10° SE 18:58:00 35° ENE 19:01:10 10° N
ATLAS CENTAUR R/B 2.5 18:54:30 10° NNW 18:58:02 28° NNE 19:01:00 14° E
YAOGAN 6 4.3 18:57:01 13° E 18:58:19 15° ENE 19:00:27 10° NNE
NOSS 3-2 (A) 3.5 18:52:34 10° SW 18:58:38 76° SE 19:05:29 10° NE
Meteor 1-14 Rocket 4.5 18:57:29 10° S 19:03:07 53° E 19:08:53 10° NNE
Iridium 4 Rocket 3.4 19:01:46 10° N 19:06:44 54° E 19:11:14 10° SSE
COSMO-SKYMED 1 2.7 19:02:30 10° NNE 19:06:53 81° WNW 19:11:14 10° SSW
Cosmos 1452 Rocket 4.0 19:02:22 10° NNW 19:07:36 65° WSW 19:12:47 10° S
Sich 1 Rocket 4.2 19:05:31 10° SSE 19:09:35 35° E 19:13:40 10° NNE
SJ-6B 3.0 19:06:34 10° SE 19:10:13 46° ENE 19:13:58 10° N
BREEZE-M DEB (TANK) 3.1 19:09:42 10° W 19:11:53 26° SSW 19:14:07 11° SE
Cosmos 2285 Rocket 4.2 19:06:13 10° SSW 19:12:34 79° WNW 19:19:01 10° NNE
Cosmos 1633 2.7 19:09:20 10° S 19:12:47 49° E 19:16:17 10° NNE
Cosmos 158 Rocket 4.1 19:09:06 10° S 19:13:44 45° ESE 19:18:24 10° NE
H-2A R/B 2.9 19:10:26 10° S 19:14:21 80° WSW 19:18:16 10° NNW
Spot 2 Rocket 4.3 19:11:49 12° ESE 19:15:45 30° ENE 19:20:08 10° N
USA 238 DEB 4.1 19:09:13 10° WSW 19:16:07 68° NW 19:23:09 10° NE
USA 238 4.1 19:09:18 10° WSW 19:16:13 68° NW 19:23:15 10° NE
Okean 1 3.2 19:14:35 10° N 19:18:36 66° ENE 19:22:33 10° SSE
Meteor 1-18 Rocket 4.2 19:13:16 10° NNW 19:18:55 89° WSW 19:24:29 10° S
SPOT 3 Rocket 4.2 19:14:32 10° S 19:19:42 61° WSW 19:24:54 10° NNW
Aureole 3 3.7 19:14:23 10° S 19:19:51 79° E 19:24:08 10° NNE
Cosmos 2034 Rocket 4.0 19:13:30 10° N 19:19:54 70° ENE 19:26:15 10° SSE
Cosmos 1891 Rocket 4.4 19:14:51 10° N 19:21:10 81° E 19:27:18 10° SSE
ERS-2 2.2 19:17:55 10° SSE 19:21:37 84° WSW 19:25:20 10° NNW
Cosmos 2082 3.6 19:16:46 10° SSW 19:22:23 81° ESE 19:28:05 10° NNE
USA 186 2.7 19:21:46 23° ESE 19:23:00 30° ENE 19:25:57 10° N
Okean 2 Rocket 4.0 19:21:00 10° SE 19:24:36 25° E 19:28:14 10° NNE
Cosmos 1812 3.9 19:21:49 10° NNW 19:25:33 46° W 19:29:16 10° SSW
Okean 3 4.4 19:26:48 10° NNW 19:30:53 51° W 19:34:56 10° S
Cosmos 1634 Rocket 4.4 19:26:34 10° N 19:32:21 40° ENE 19:37:45 12° SE
Meteor 1-19 Rocket 4.2 19:27:23 10° N 19:32:53 62° ENE 19:38:22 10° SSE
Meteor 2-4 Rocket 4.0 19:27:22 10° N 19:33:02 47° ENE 19:38:32 10° SE
CZ-2D R/B 3.2 19:29:34 10° SSE 19:33:27 68° ENE 19:37:20 10° N
USA 215 4.1 19:30:55 20° E 19:34:10 29° SE 19:39:43 10° S
Meteor 1-25 Rocket 4.1 19:29:01 10° S 19:34:33 79° E 19:40:10 10° NNE
Cosmos 921 Rocket 3.4 19:34:14 10° NNW 19:38:46 69° WSW 19:43:13 10° S
ARGOS 4.4 19:42:50 22° ENE 19:43:37 22° NE 19:47:43 10° N
Meteor 1-11 Rocket 4.3 19:39:11 10° SSE 19:44:12 35° E 19:49:19 10° NNE
Cosmos 1908 Rocket 3.6 19:40:07 10° S 19:44:36 89° WNW 19:49:06 10° N
Cosmos 1602 3.9 19:40:56 10° SSE 19:44:40 45° E 19:48:24 10° NNE
ARGOS Delta rocket 4.0 19:41:13 10° NNE 19:46:03 50° E 19:50:36 10° S
CZ-4C R/B 2.8 19:43:37 10° NW 19:50:20 67° NE 19:55:02 25° ESE
Cosmos 2082 Rocket 4.4 19:49:46 10° NNW 19:52:07 12° N 19:54:27 10° NE
Cosmos 2084 Rocket 4.1 19:48:22 10° WSW 19:52:33 50° NW 19:55:14 19° NE
NOSS 3-2 (C) 3.7 19:46:24 10° SW 19:52:34 78° NW 19:59:20 11° NE
EO 1 Del DPAF 4.2 19:50:43 10° N 19:54:27 50° WNW 19:58:09 10° SW
SeaSat 1 2.8 19:51:30 10° SSE 19:56:25 66° WSW 20:01:21 10° NW
SJ-11-01 4.4 19:54:50 29° SE 19:56:57 52° ENE 20:01:34 10° N
COSMOS 2455 4.2 19:53:17 10° SSE 19:55:44 20° SE 19:55:44 20° SE
Cosmos 1437 Rocket 2.7 19:57:46 10° S 20:01:51 80° E 20:05:59 10° NNE
Resurs 1-3 3.5 19:59:35 22° SSE 20:02:20 74° ENE 20:06:44 10° NNW
DNEPR-1 R/B 4.2 19:59:03 10° WSW 20:03:12 53° NW 20:06:31 18° NE
Envisat 3.1 19:59:27 10° S 20:04:32 75° WSW 20:09:39 10° NNW
Thor Agena Rocket 3.4 19:59:28 10° NNE 20:04:36 69° ESE 20:09:38 10° S
NOAA 11 4.4 20:02:46 34° ESE 20:04:36 48° ENE 20:09:49 10° N
Cosmos 1943 3.1 19:58:59 10° NNW 20:04:40 75° NE 20:07:35 30° SE
Cosmos 1975 Rocket 3.5 20:01:01 10° NNW 20:05:25 62° W 20:09:49 10° S
USA 267 3.2 20:08:01 31° ESE 20:11:28 87° SSW 20:18:03 10° WNW
Cosmos 1110 Rocket 4.3 20:08:48 10° NNW 20:14:04 70° WSW 20:18:16 16° SSE
CENTAUR R/B 2.5 20:08:29 10° SW 20:14:43 79° SE 20:20:22 17° NE
Resurs 01 Rocket 1.6 20:13:22 24° SSE 20:16:00 85° WSW 20:20:28 10° NNW
SL-8 R/B 4.2 20:11:33 10° SW 20:16:03 42° SSE 20:16:24 42° SSE
USA 32 4.4 20:11:27 10° SSW 20:16:38 64° W 20:21:51 10° N
Cosmos 1269 Rocket 3.9 20:11:41 10° SSW 20:16:58 80° ESE 20:22:17 10° NNE
Cosmos 1939 Rocket 2.8 20:16:30 39° SSE 20:18:01 87° WSW 20:22:09 10° NNW
Meteor 1-23 Rocket 4.2 20:15:34 10° N 20:21:24 69° ENE 20:23:50 36° SSE
Tsikada Rocket 4.0 20:15:10 10° S 20:21:36 88° WNW 20:28:03 10° N
Cosmos 2227 Rocket 3.5 20:18:19 10° WSW 20:23:35 38° NW 20:28:52 10° NNE
Cosmos 1184 Rocket 3.3 20:20:30 10° NNW 20:23:21 56° NW 20:23:21 56° NW
YAOGAN 6 2.9 20:31:26 63° WSW 20:31:27 63° W 20:35:03 10° NNW
Cosmos 1536 Rocket 3.4 20:31:27 10° N 20:35:55 89° WSW 20:36:00 86° S
ATLAS CENTAUR R/B 1.5 20:33:15 10° NW 20:37:17 70° SW 20:37:17 70° SW
Cosmos 2297 Rocket 3.6 20:32:13 10° WSW 20:37:25 36° NW 20:42:40 10° NNE
H-2A R/B 2.9 20:38:45 37° NE 20:38:45 37° NE 20:42:56 10° N
Terra 4.1 20:40:46 12° NNE 20:40:46 12° NNE 20:41:26 10° NNE
Cosmos 1992 Rocket 4.5 20:38:55 10° NNW 20:43:21 46° NNE 20:43:21 46° NNE
ATLAS 3B R/B 3.8 20:39:01 10° W 20:45:33 39° NNW 20:49:53 19° NE
USA 186 4.1 20:53:20 22° WSW 20:53:47 23° W 20:56:31 10° NW
Cosmos 1025 Rocket 4.5 20:50:02 10° N 20:52:16 29° N 20:52:16 29° N
Spot 2 Rocket 4.2 20:52:00 27° SSW 20:54:30 52° W 20:59:29 10° NNW
MetOp-A 4.2 20:55:12 61° NNE 20:55:12 61° NNE 20:59:55 10° NNW
ERS-1 Rocket 3.8 20:56:05 40° NNE 20:56:05 40° NNE 20:59:35 10° N
SPOT 5 4.3 20:57:49 30° NNE 20:57:49 30° NNE 21:00:55 10° N
Cosmos 2279 Rocket 3.9 20:52:54 10° N 20:59:10 89° WSW 21:00:27 60° S
Okean 2 Rocket 4.2 20:58:18 10° SW 21:02:29 42° WNW 21:06:44 10° N
USA 215 3.1 21:18:16 72° S 21:18:16 72° S 21:24:27 10° SW
ARGOS 3.6 21:24:21 60° NNW 21:24:21 60° NNW 21:28:46 10° NNW
Cosmos 2082 Rocket 4.0 21:33:48 10° NNW 21:36:50 22° NNE 21:36:50 22° NNE
CZ-4C R/B 3.6 21:32:16 10° NW 21:38:55 46° WSW 21:40:15 42° SSW
COSMOS 2406 4.3 21:43:37 10° NNW 21:47:13 40° NNW 21:47:13 40° NNW
USA 267 4.2 21:55:22 37° SW 21:55:22 37° SW 22:01:02 10° WNW
CENTAUR R/B 3.6 21:59:42 10° W 22:06:02 45° NNW 22:07:36 40° N
Terra 4.5 22:19:39 15° NNW 22:19:39 15° NNW 22:20:27 10° NNW
H-2A R/B 3.9 22:19:22 29° NW 22:19:22 29° NW 22:22:27 10° NNW
ATLAS 3B R/B 4.0 22:31:46 10° NW 22:37:08 33° N 22:37:08 33° N
